Madera, CA

1:03 AM PST on February 22, 2017 (GMT -0800)
Madera Municipal

Weather History for KMAE - March, 2013

Change the Weather History Date:

Tuesday, March 5, 2013

  Actual Average Record
Temperature  
Mean Temperature 56 °F 53 °F  
Max Temperature 70 °F 65 °F 78 °F (2012)
Min Temperature 41 °F 42 °F 32 °F (1999)
Degree Days  
Heating Degree Days 9    
Month to date heating degree days 32  
Since 1 July heating degree days 2035  
Cooling Degree Days 0    
Month to date cooling degree days 0  
Year to date cooling degree days 0  
Growing Degree Days 6 (Base 50)    
Moisture  
Dew Point 44 °F    
Average Humidity 66    
Maximum Humidity 96    
Minimum Humidity 36    
Precipitation  
Precipitation 0.00 in 0.08 in 0.86 in (2000)
Month to date precipitation T 0.47  
Year to date precipitation 2.14 5.05  
Since 1 July precipitation 6.84  
Snow  
Snow 0.00 in - - ()
Month to date snowfall 0.0  
Since 1 July snowfall 0.0  
Snow Depth 0.00 in    
Sea Level Pressure  
Sea Level Pressure 29.97 in    
Wind  
Wind Speed 4 mph (South)    
Max Wind Speed 12 mph    
Max Gust Speed -    
Visibility 10 miles    
Events      
T = Trace of Precipitation, MM = Missing Value Source: NWS Daily Summary

Daily Weather History Graph

Daily Weather History Graph

Search for Another Location

Airport or City:

Trip Planner

Search our weather history database for the weather conditions in past years. The results will help you decide how hot, cold, wet, or windy it might be!

Date:

Astronomy

Mar. 05, 2013 Rise Set
Actual Time 6:25 AM PST 5:58 PM PST
Civil Twilight 5:59 AM PST 6:24 PM PST
Nautical Twilight 5:29 AM PST 6:54 PM PST
Astronomical Twilight 4:59 AM PST 7:25 PM PST
Moon 1:36 AM PST (3/5) 11:49 AM PST (3/5)
Length of Visible Light 12h 25m
Length of Day
11h 33m
Last Quarter, 39% of the Moon is Illuminated
Mar 5
Last Quarter
Mar 11
New
Mar 19
First Quarter
Mar 27
Full
Apr 2
Last Quarter

Hourly Weather History & Observations

Time (PST) Temp. Windchill Dew Point Humidity Pressure Visibility Wind Dir Wind Speed Gust Speed Precip Events Conditions
1:53 AM 48.0 °F - 43.0 °F 83% 30.03 in 10.0 mi East 3.5 mph - N/A   Clear
2:53 AM 44.1 °F - 42.1 °F 93% 30.01 in 10.0 mi Calm Calm - N/A   Clear
5:53 AM 42.1 °F 40.2 °F 39.9 °F 92% 30.03 in 8.0 mi NNE 3.5 mph - N/A   Clear
6:53 AM 44.1 °F - 41.0 °F 89% 30.04 in 9.0 mi Calm Calm - N/A   Clear
7:53 AM 46.0 °F - 44.1 °F 93% 30.05 in 7.0 mi Calm Calm - N/A   Clear
8:53 AM 52.0 °F - 46.9 °F 83% 30.05 in 10.0 mi Calm Calm - N/A   Clear
9:53 AM 57.0 °F - 48.0 °F 72% 30.05 in 9.0 mi Variable 4.6 mph - N/A   Clear
10:53 AM 60.1 °F - 46.9 °F 62% 30.03 in 10.0 mi Calm Calm - N/A   Clear
11:53 AM 64.0 °F - 48.0 °F 56% 30.01 in 10.0 mi Calm Calm - N/A   Clear
12:53 PM 66.9 °F - 44.1 °F 44% 29.97 in 10.0 mi South 11.5 mph - N/A   Clear
1:53 PM 68.0 °F - 45.0 °F 43% 29.94 in 10.0 mi SW 9.2 mph - N/A   Clear
2:53 PM 68.0 °F - 46.0 °F 45% 29.92 in 10.0 mi Variable 4.6 mph - N/A   Clear
3:53 PM 69.1 °F - 44.1 °F 40% 29.89 in 10.0 mi Variable 4.6 mph - N/A   Clear
4:53 PM 69.1 °F - 41.0 °F 36% 29.88 in 10.0 mi South 9.2 mph - N/A   Clear
5:53 PM 62.1 °F - 46.9 °F 58% 29.88 in 10.0 mi WNW 5.8 mph - N/A   Clear
6:53 PM 57.0 °F - 42.1 °F 57% 29.91 in 10.0 mi North - - N/A   Clear
7:53 PM 54.0 °F - 42.1 °F 64% 29.91 in 10.0 mi North - - N/A   Clear
8:53 PM 48.9 °F - 42.1 °F 77% 29.94 in 10.0 mi North - - N/A   Clear
9:53 PM 50.0 °F - 41.0 °F 71% 29.95 in 10.0 mi North - - N/A   Mostly Cloudy
10:53 PM 50.0 °F - 41.0 °F 71% 29.95 in 10.0 mi North - - N/A   Mostly Cloudy
11:53 PM 50.0 °F - 41.0 °F 71% 29.96 in 10.0 mi North - - N/A   Mostly Cloudy